SCP
0 0 -0 -0 -0 -0 -0 -0 -0 -0 -0 -0 -0 -0 -0 0 0 0 0 0 0 -0 -0 0 0 0 0 0 0 0 0 -0 -0 -0 -0 -0 -0 -0 0 0 0 0 0
0 0 0 0 0 0 0 0 0 0 0 0 0 0 0 0 0 0 0 0 0 0 0 0 0 0 0 0 0 0 0 0 -0 -0 -0 -0 -0 0 0 0 0 0 0
0 0 0 0 0 0 0 0 0 0 0 0 0 0 0 0 0 0 0 0 0 0 0 0 0 0 0 0 0 0 0 0 -0 -0 -0 -0 -0 -0 0 0 0 0 0
0 0 0 0 0 0 0 0 0 0 0 0 0 0 0 0 0 0 0 0 0 0 0 0 0 0 0 0 0 0 0 0 0 -0 -0 -0 -0 0 0 0 0 0 0
0 0 0 0 0 0 0 0 0 0 0 0 0 0 0 0 0 0 0 0 0 0 0 0 0 0 0 0 0 0 0 0 0 -0 -0 -0 -0 0 0 0 0 0 0
0 0 0 0 0 0 0 0 0 0 0 0 0 0 0 0 0 0 0 0 0 0 0 0 0 0 0 0 0 0 0 0 0 0 -0 0 -0 0 0 0 0 0 0
0 0 0 0 0 0 0 0 0 0 0 0 0 0 0 0 0 0 0 0 0 0 0 0 0 0 0 0 0 0 0 0 0 0 0 0 0 0 0 0 0 0 0
0 0 0 0 0 0 0 0 0 0 0 0 0 0 0 0 0 0 0 0 0 0 0 0 0 0 0 0 0 0 0 0 0 0 0 0 0 0 0 0 0 0 0
0 0 0 0 0 0 0 0 0 0 0 0 0 0 0 0 0 0 0 0 0 0 0 0 0 0 0 0 0 0 0 0 0 0 0 0 0 0 0 0 0 0 0
0 0 0 0 0 0 0 0 0 0 0 0 0 0 0 0 0 0 0 0 0 0 0 0 0 0 0 0 0 0 0 0 0 0 0 0 0 0 0 0 0 0 0
0 0 0 0 0 0 0 0 0 0 0 0 0 0 0 0 0 0 0 0 0 0 0 0 0 0 0 0 0 0 0 0 0 0 0 0 0 0 0 0 0 0 0
0 0 0 0 0 0 0 0 0 0 0 0 0 0 0 0 0 0 0 0 0 0 0 0 0 0 0 0 0 0 0 0 0 0 0 0 0 0 0 0 0 0 0
0 0 0 0 0 0 0 0 0 0 0 0 0 0 0 0 0 0 0 0 0 0 0 0 0 0 0 0 0 0 0 0 0 0 0 0 0 0 0 0 0 0 0
0 0 0 0 0 0 0 0 0 0 0 0 0 0 0 0 0 0 0 0 0 0 0 0 0 0 0 0 0 0 0 0 0 0 0 0 0 0 0 0 0 0 0
0 0 0 0 0 0 0 0 0 0 0 0 0 0 0 0 0 0 0 0 0 0 0 0 0 0 0 0 0 0 0 0 0 0 0 0 0 0 0 0 0 0 0
0 0 0 0 0 0 0 0 0 0 0 0 0 0 0 0 0 0 0 0 0 0 0 0 0 0 0 0 0 0 0 0 0 0 0 0 0 0 0 0 0 0 0
0 0 0 0 0 0 0 0 0 0 0 0 0 0 0 0 0 0 0 0 0 0 0 0 0 0 0 0 0 0 0 0 0 0 0 0 0 0 0 0 0 0 0
0 0 0 0 0 0 0 0 0 0 0 0 0 0 0 0 0 0 0 0 0 0 0 0 0 0 0 0 0 0 0 0 0 0 0 0 0 0 0 0 0 0 0
0 0 0 0 0 0 0 0 0 0 0 0 0 0 0 0 0 0 0 0 0 0 0 0 0 0 0 0 0 0 0 0 0 0 0 0 0 0 0 0 0 0 0
0 0 0 0 0 0 0 0 0 0 0 0 0 0 0 0 0 0 0 0 0 0 0 0 0 0 0 0 0 0 0 0 0 0 0 0 0 0 0 0 0 0 0
0 0 0 0 0 0 0 0 0 0 0 0 0 0 0 0 0 0 0 0 0 0 0 0 0 0 0 0 0 0 0 0 0 0 0 0 0 0 0 0 0 0 0
0 0 0 0 0 0 0 0 0 0 0 0 0 0 0 0 0 0 0 0 0 0 0 0 0 0 0 0 0 0 0 0 0 0 0 0 0 0 0 0 0 0 0
0 0 0 0 0 0 0 0 0 0 0 0 0 0 0 0 0 0 0 0 0 0 0 0 0 0 0 0 0 0 0 0 0 0 0 0 0 0 0 0 0 0 0
0 0 0 0 0 0 0 0 0 0 0 0 0 0 0 0 0 0 0 0 0 0 0 0 0 0 0 0 0 0 0 0 0 0 0 0 0 0 0 0 0 0 0
0 0 0 0 0 0 0 0 0 0 0 0 0 0 0 0 0 0 0 0 0 -0 -0 0 -0 0 -0 -0 0 -0 -0 0 0 0 0 0 0 0 0 0 0 0 0
0 0 0 0 0 0 0 0 0 0 0 0 0 0 0 0 0 0 0 0 0 0 0 -0 -0 0 0 -0 -0 0 -0 -0 0 -0 0 0 0 0 0 0 0 0 0
Wind_Speed_500mb
12 4 13 7 7 2 2 6 6 6 10 12 15 15 14 12 13 13 13 14 14 14 13 13 13 11 11 11 12 12 15 18 21 21 19 19 23 26 20 16 14 13 14
10 7 11 9 4 6 7 7 5 3 3 4 5 8 9 13 13 16 17 15 15 15 15 13 12 11 12 11 10 10 11 15 19 20 17 14 14 25 28 22 18 15 14
10 8 7 7 5 5 8 11 9 7 4 6 8 9 7 8 9 8 10 13 15 17 15 14 15 14 13 13 11 11 9 9 16 19 14 15 14 19 28 28 21 18 18
8 6 7 5 6 8 8 6 8 9 8 9 11 13 14 14 15 15 16 16 16 14 16 15 13 14 12 13 12 12 14 11 9 15 13 10 14 17 25 25 25 19 20
6 8 9 9 8 4 3 4 6 8 9 10 12 14 15 15 17 20 21 20 21 20 18 19 18 17 14 13 12 14 16 16 12 9 13 10 14 22 35 29 26 22 19
6 7 6 5 5 5 7 10 10 11 14 15 16 17 19 20 22 24 23 18 20 23 22 22 21 19 19 17 16 17 15 17 17 4 11 16 19 22 33 28 30 28 24
4 4 3 3 4 7 10 14 16 17 18 19 21 23 25 26 26 27 27 27 28 26 26 28 27 25 22 21 23 20 19 17 22 16 12 12 20 28 31 27 30 30 27
0 2 3 4 6 10 13 16 19 21 21 21 22 25 29 31 32 28 27 29 28 31 32 30 27 30 27 27 25 25 24 21 22 18 15 18 22 27 35 33 34 33 33
2 4 6 9 11 11 13 15 17 20 22 24 23 24 29 27 32 29 29 29 29 28 28 26 24 27 28 23 23 25 24 23 21 15 20 18 22 21 26 30 35 32 38
3 6 7 11 12 14 18 19 17 19 21 21 22 24 25 25 28 25 23 24 26 26 28 28 28 28 28 26 20 18 21 18 20 19 19 22 25 25 21 22 28 32 34
8 12 11 12 17 16 16 18 18 15 16 17 17 19 20 20 21 23 24 23 23 24 27 29 29 28 26 26 24 23 20 19 17 20 21 20 10 25 24 22 21 25 28
8 12 14 14 14 19 21 20 21 20 16 16 15 14 14 14 15 17 19 20 21 22 23 22 21 22 23 24 22 20 20 21 24 26 28 27 29 28 29 36 34 33 29
13 20 22 21 14 14 18 16 17 15 14 13 13 11 10 10 9 9 9 8 8 9 12 12 13 15 15 16 17 16 16 15 20 28 27 30 33 37 40 45 42 43 42
17 17 19 20 12 16 15 15 13 12 12 10 11 11 10 9 9 10 10 10 9 8 8 7 7 6 5 3 2 2 5 9 11 14 21 26 32 30 27 21 18 14 19
14 17 14 12 10 11 9 9 7 7 10 15 13 14 15 14 16 18 18 17 16 15 12 9 9 8 8 11 13 17 10 8 7 6 9 15 21 22 18 17 15 17 17
21 12 6 7 7 6 6 6 9 11 15 16 17 20 20 20 22 22 22 21 22 22 22 20 20 17 14 18 18 22 15 11 4 5 11 12 11 10 12 14 15 15 16
9 6 5 5 3 1 3 7 9 12 14 15 17 18 17 18 19 20 19 19 23 22 20 19 21 21 18 22 24 20 12 14 14 15 16 16 15 12 10 9 12 17 20
11 9 9 7 6 6 7 7 9 10 12 13 14 14 15 15 16 17 17 20 23 21 19 18 22 24 22 23 30 21 16 18 23 30 27 26 25 23 19 18 17 17 19
11 10 10 9 8 7 7 6 7 9 10 12 13 13 15 15 16 17 18 20 22 21 21 23 25 27 23 23 29 19 20 26 26 24 36 32 30 27 26 25 25 26 30
14 13 14 14 12 9 7 4 5 8 10 13 14 15 17 18 19 20 20 21 22 22 25 27 28 29 26 26 28 22 17 22 16 25 28 34 29 25 26 24 27 32 35
21 16 15 16 16 13 8 2 4 7 9 11 14 16 17 18 19 20 21 22 24 26 30 29 27 29 31 25 25 24 16 12 16 18 28 34 28 26 22 23 29 32 36
24 22 21 20 18 13 9 3 3 4 8 12 15 16 19 20 22 23 24 26 28 28 28 30 32 32 32 29 14 13 10 7 11 11 25 34 31 25 23 28 33 39 43
28 27 24 20 17 14 12 11 7 4 5 11 12 14 18 21 23 25 27 28 29 30 32 33 33 33 33 29 28 14 6 5 8 4 21 32 28 22 20 22 28 35 41
26 29 28 24 20 18 17 14 9 5 4 7 10 13 16 20 23 26 28 29 31 32 31 33 33 32 29 30 28 26 17 16 13 9 15 30 30 24 25 21 27 34 42
25 33 31 28 26 23 20 17 12 7 5 5 8 10 13 17 21 24 26 27 28 29 30 30 30 31 32 30 29 23 15 14 17 14 21 40 28 29 24 25 27 35 43
26 34 35 34 32 28 25 21 15 12 9 6 6 8 12 14 17 20 22 24 26 26 27 29 29 29 29 29 27 26 26 23 27 24 30 38 35 31 20 26 26 36 46
Wind_Direction_500mb
216 190 179 189 201 259 331 7 27 57 63 70 57 49 30 15 10 359 355 349 343 342 344 349 354 352 351 349 357 12 19 27 32 33 42 52 41 29 28 20 9 356 357
200 160 172 183 199 273 304 292 331 9 27 5 22 34 43 43 28 20 13 1 346 341 339 332 328 341 334 340 337 341 4 16 26 31 37 43 30 17 11 12 10 6 5
175 148 153 171 211 270 292 290 284 259 252 290 309 318 325 336 331 341 353 360 360 358 344 353 327 302 316 327 330 332 333 358 11 25 27 18 15 359 347 358 0 2 0
138 134 162 202 229 259 291 329 357 333 314 280 294 300 302 307 309 309 305 313 317 323 337 330 323 323 308 309 307 302 304 310 327 12 10 4 352 334 328 333 344 349 354
132 124 142 172 219 243 293 322 337 338 332 319 304 297 300 295 291 290 293 300 299 299 299 306 312 311 311 301 289 278 286 292 306 340 4 1 322 314 322 317 323 331 337
152 132 147 173 217 275 304 312 315 313 310 306 302 296 292 290 285 284 287 292 294 291 292 297 300 301 296 293 288 281 283 281 289 272 332 326 328 295 310 317 322 317 321
146 133 124 219 278 294 304 310 311 311 307 303 300 296 292 287 285 284 284 280 281 284 286 289 289 288 286 281 276 275 272 265 270 279 284 280 292 300 300 307 317 322 308
17 3 340 315 312 323 317 319 317 317 312 307 298 289 285 282 283 283 283 282 281 279 278 283 289 291 282 272 272 272 271 274 275 289 299 291 285 284 294 306 299 310 315
330 333 330 330 336 334 324 329 327 321 318 314 307 297 289 290 284 284 283 280 278 278 278 276 275 275 286 291 272 266 270 271 273 271 254 268 268 278 287 293 299 303 308
292 312 343 330 333 340 334 329 328 325 320 314 308 301 297 295 290 289 285 281 275 274 273 272 271 274 276 274 281 270 260 263 261 261 257 270 269 271 269 274 288 302 300
332 333 340 333 333 332 333 330 325 331 328 323 318 308 302 297 295 295 291 288 286 279 275 274 274 272 268 264 261 267 267 250 242 244 241 252 272 246 268 282 305 311 307
313 319 321 325 324 323 330 333 334 339 344 335 334 325 310 307 304 304 302 297 292 289 286 283 277 269 263 260 256 248 243 248 257 255 259 262 257 269 277 279 288 292 307
315 324 318 313 319 329 327 324 328 343 351 351 352 349 347 352 350 340 336 328 322 309 301 297 282 268 263 260 259 252 247 245 248 254 264 270 269 274 278 290 291 290 293
235 249 282 297 315 316 327 333 338 345 357 358 13 14 12 12 19 26 23 23 18 17 2 352 343 339 326 301 276 228 207 209 243 254 259 260 264 277 277 285 291 318 303
265 284 275 296 310 320 330 333 355 29 45 47 49 52 50 52 52 51 48 44 44 46 37 35 27 29 52 76 90 90 109 140 211 242 283 284 285 297 301 292 326 360 319
266 262 283 291 303 328 340 26 56 66 70 68 66 64 60 60 61 57 57 54 54 52 48 49 50 53 73 101 99 88 108 114 101 347 336 334 334 327 321 335 332 348 332
262 254 246 251 258 212 115 94 87 77 70 65 58 56 56 53 54 53 52 53 54 50 50 48 48 52 82 109 103 93 88 77 68 60 59 58 54 43 22 12 7 348 353
249 234 230 218 199 162 121 96 76 67 59 55 53 49 47 49 48 46 46 47 49 46 47 51 51 55 86 112 102 87 81 69 78 65 62 59 59 57 56 49 38 18 7
243 237 227 204 183 156 126 102 76 61 52 49 44 43 43 41 46 43 46 49 47 45 48 49 50 54 89 113 105 99 80 69 82 72 60 57 55 57 57 61 53 44 34
236 220 211 198 185 174 157 124 68 58 49 47 44 43 45 42 44 43 44 47 48 50 54 53 53 55 88 111 103 106 93 56 63 60 50 44 48 52 51 55 49 41 33
241 227 210 199 193 193 195 157 55 53 55 48 50 51 51 51 50 49 47 46 46 45 48 52 56 65 82 115 121 119 111 50 22 53 39 35 40 44 51 53 42 34 30
235 224 217 207 208 209 216 172 112 79 66 59 57 54 53 50 49 47 47 47 46 47 46 48 50 52 60 74 133 142 157 195 353 36 28 29 30 37 49 43 36 30 26
238 224 221 215 213 203 197 191 176 127 74 67 64 59 57 52 48 45 44 43 41 41 41 41 45 46 50 52 56 69 75 28 12 2 20 24 28 39 44 34 35 25 24
245 225 221 219 215 208 202 205 218 185 110 83 73 64 58 52 48 44 41 38 36 36 36 36 37 38 40 49 49 48 52 35 21 338 345 24 27 40 31 24 30 16 17
248 229 225 220 216 212 210 215 211 183 154 123 96 82 69 54 46 42 38 35 32 30 31 31 30 30 29 30 35 45 41 21 4 355 340 354 31 27 19 11 13 6 5
244 228 223 220 219 215 213 213 208 196 185 156 121 83 64 54 42 37 33 30 29 27 25 24 23 22 23 22 21 15 12 12 2 360 343 345 353 10 16 3 356 356 356
Wind_Speed_850mb
12 4 13 7 7 2 2 6 6 6 10 12 15 15 14 12 13 13 13 14 14 14 13 13 13 11 11 11 12 12 15 18 21 21 19 19 23 26 20 16 14 13 14
10 7 11 9 4 6 7 7 5 3 3 4 5 8 9 13 13 16 17 15 15 15 15 13 12 11 12 11 10 10 11 15 19 20 17 14 14 25 28 22 18 15 14
10 8 7 7 5 5 8 11 9 7 4 6 8 9 7 8 9 8 10 13 15 17 15 14 15 14 13 13 11 11 9 9 16 19 14 15 14 19 28 28 21 18 18
8 6 7 5 6 8 8 6 8 9 8 9 11 13 14 14 15 15 16 16 16 14 16 15 13 14 12 13 12 12 14 11 9 15 13 10 14 17 25 25 25 19 20
6 8 9 9 8 4 3 4 6 8 9 10 12 14 15 15 17 20 21 20 21 20 18 19 18 17 14 13 12 14 16 16 12 9 13 10 14 22 35 29 26 22 19
6 7 6 5 5 5 7 10 10 11 14 15 16 17 19 20 22 24 23 18 20 23 22 22 21 19 19 17 16 17 15 17 17 4 11 16 19 22 33 28 30 28 24
4 4 3 3 4 7 10 14 16 17 18 19 21 23 25 26 26 27 27 27 28 26 26 28 27 25 22 21 23 20 19 17 22 16 12 12 20 28 31 27 30 30 27
0 2 3 4 6 10 13 16 19 21 21 21 22 25 29 31 32 28 27 29 28 31 32 30 27 30 27 27 25 25 24 21 22 18 15 18 22 27 35 33 34 33 33
2 4 6 9 11 11 13 15 17 20 22 24 23 24 29 27 32 29 29 29 29 28 28 26 24 27 28 23 23 25 24 23 21 15 20 18 22 21 26 30 35 32 38
3 6 7 11 12 14 18 19 17 19 21 21 22 24 25 25 28 25 23 24 26 26 28 28 28 28 28 26 20 18 21 18 20 19 19 22 25 25 21 22 28 32 34
8 12 11 12 17 16 16 18 18 15 16 17 17 19 20 20 21 23 24 23 23 24 27 29 29 28 26 26 24 23 20 19 17 20 21 20 10 25 24 22 21 25 28
8 12 14 14 14 19 21 20 21 20 16 16 15 14 14 14 15 17 19 20 21 22 23 22 21 22 23 24 22 20 20 21 24 26 28 27 29 28 29 36 34 33 29
13 20 22 21 14 14 18 16 17 15 14 13 13 11 10 10 9 9 9 8 8 9 12 12 13 15 15 16 17 16 16 15 20 28 27 30 33 37 40 45 42 43 42
17 17 19 20 12 16 15 15 13 12 12 10 11 11 10 9 9 10 10 10 9 8 8 7 7 6 5 3 2 2 5 9 11 14 21 26 32 30 27 21 18 14 19
14 17 14 12 10 11 9 9 7 7 10 15 13 14 15 14 16 18 18 17 16 15 12 9 9 8 8 11 13 17 10 8 7 6 9 15 21 22 18 17 15 17 17
21 12 6 7 7 6 6 6 9 11 15 16 17 20 20 20 22 22 22 21 22 22 22 20 20 17 14 18 18 22 15 11 4 5 11 12 11 10 12 14 15 15 16
9 6 5 5 3 1 3 7 9 12 14 15 17 18 17 18 19 20 19 19 23 22 20 19 21 21 18 22 24 20 12 14 14 15 16 16 15 12 10 9 12 17 20
11 9 9 7 6 6 7 7 9 10 12 13 14 14 15 15 16 17 17 20 23 21 19 18 22 24 22 23 30 21 16 18 23 30 27 26 25 23 19 18 17 17 19
11 10 10 9 8 7 7 6 7 9 10 12 13 13 15 15 16 17 18 20 22 21 21 23 25 27 23 23 29 19 20 26 26 24 36 32 30 27 26 25 25 26 30
14 13 14 14 12 9 7 4 5 8 10 13 14 15 17 18 19 20 20 21 22 22 25 27 28 29 26 26 28 22 17 22 16 25 28 34 29 25 26 24 27 32 35
21 16 15 16 16 13 8 2 4 7 9 11 14 16 17 18 19 20 21 22 24 26 30 29 27 29 31 25 25 24 16 12 16 18 28 34 28 26 22 23 29 32 36
24 22 21 20 18 13 9 3 3 4 8 12 15 16 19 20 22 23 24 26 28 28 28 30 32 32 32 29 14 13 10 7 11 11 25 34 31 25 23 28 33 39 43
28 27 24 20 17 14 12 11 7 4 5 11 12 14 18 21 23 25 27 28 29 30 32 33 33 33 33 29 28 14 6 5 8 4 21 32 28 22 20 22 28 35 41
26 29 28 24 20 18 17 14 9 5 4 7 10 13 16 20 23 26 28 29 31 32 31 33 33 32 29 30 28 26 17 16 13 9 15 30 30 24 25 21 27 34 42
25 33 31 28 26 23 20 17 12 7 5 5 8 10 13 17 21 24 26 27 28 29 30 30 30 31 32 30 29 23 15 14 17 14 21 40 28 29 24 25 27 35 43
26 34 35 34 32 28 25 21 15 12 9 6 6 8 12 14 17 20 22 24 26 26 27 29 29 29 29 29 27 26 26 23 27 24 30 38 35 31 20 26 26 36 46
Wind_Direction_850mb
216 190 179 189 201 259 331 7 27 57 63 70 57 49 30 15 10 359 355 349 343 342 344 349 354 352 351 349 357 12 19 27 32 33 42 52 41 29 28 20 9 356 357
200 160 172 183 199 273 304 292 331 9 27 5 22 34 43 43 28 20 13 1 346 341 339 332 328 341 334 340 337 341 4 16 26 31 37 43 30 17 11 12 10 6 5
175 148 153 171 211 270 292 290 284 259 252 290 309 318 325 336 331 341 353 360 360 358 344 353 327 302 316 327 330 332 333 358 11 25 27 18 15 359 347 358 0 2 0
138 134 162 202 229 259 291 329 357 333 314 280 294 300 302 307 309 309 305 313 317 323 337 330 323 323 308 309 307 302 304 310 327 12 10 4 352 334 328 333 344 349 354
132 124 142 172 219 243 293 322 337 338 332 319 304 297 300 295 291 290 293 300 299 299 299 306 312 311 311 301 289 278 286 292 306 340 4 1 322 314 322 317 323 331 337
152 132 147 173 217 275 304 312 315 313 310 306 302 296 292 290 285 284 287 292 294 291 292 297 300 301 296 293 288 281 283 281 289 272 332 326 328 295 310 317 322 317 321
146 133 124 219 278 294 304 310 311 311 307 303 300 296 292 287 285 284 284 280 281 284 286 289 289 288 286 281 276 275 272 265 270 279 284 280 292 300 300 307 317 322 308
17 3 340 315 312 323 317 319 317 317 312 307 298 289 285 282 283 283 283 282 281 279 278 283 289 291 282 272 272 272 271 274 275 289 299 291 285 284 294 306 299 310 315
330 333 330 330 336 334 324 329 327 321 318 314 307 297 289 290 284 284 283 280 278 278 278 276 275 275 286 291 272 266 270 271 273 271 254 268 268 278 287 293 299 303 308
292 312 343 330 333 340 334 329 328 325 320 314 308 301 297 295 290 289 285 281 275 274 273 272 271 274 276 274 281 270 260 263 261 261 257 270 269 271 269 274 288 302 300
332 333 340 333 333 332 333 330 325 331 328 323 318 308 302 297 295 295 291 288 286 279 275 274 274 272 268 264 261 267 267 250 242 244 241 252 272 246 268 282 305 311 307
313 319 321 325 324 323 330 333 334 339 344 335 334 325 310 307 304 304 302 297 292 289 286 283 277 269 263 260 256 248 243 248 257 255 259 262 257 269 277 279 288 292 307
315 324 318 313 319 329 327 324 328 343 351 351 352 349 347 352 350 340 336 328 322 309 301 297 282 268 263 260 259 252 247 245 248 254 264 270 269 274 278 290 291 290 293
235 249 282 297 315 316 327 333 338 345 357 358 13 14 12 12 19 26 23 23 18 17 2 352 343 339 326 301 276 228 207 209 243 254 259 260 264 277 277 285 291 318 303
265 284 275 296 310 320 330 333 355 29 45 47 49 52 50 52 52 51 48 44 44 46 37 35 27 29 52 76 90 90 109 140 211 242 283 284 285 297 301 292 326 360 319
266 262 283 291 303 328 340 26 56 66 70 68 66 64 60 60 61 57 57 54 54 52 48 49 50 53 73 101 99 88 108 114 101 347 336 334 334 327 321 335 332 348 332
262 254 246 251 258 212 115 94 87 77 70 65 58 56 56 53 54 53 52 53 54 50 50 48 48 52 82 109 103 93 88 77 68 60 59 58 54 43 22 12 7 348 353
249 234 230 218 199 162 121 96 76 67 59 55 53 49 47 49 48 46 46 47 49 46 47 51 51 55 86 112 102 87 81 69 78 65 62 59 59 57 56 49 38 18 7
243 237 227 204 183 156 126 102 76 61 52 49 44 43 43 41 46 43 46 49 47 45 48 49 50 54 89 113 105 99 80 69 82 72 60 57 55 57 57 61 53 44 34
236 220 211 198 185 174 157 124 68 58 49 47 44 43 45 42 44 43 44 47 48 50 54 53 53 55 88 111 103 106 93 56 63 60 50 44 48 52 51 55 49 41 33
241 227 210 199 193 193 195 157 55 53 55 48 50 51 51 51 50 49 47 46 46 45 48 52 56 65 82 115 121 119 111 50 22 53 39 35 40 44 51 53 42 34 30
235 224 217 207 208 209 216 172 112 79 66 59 57 54 53 50 49 47 47 47 46 47 46 48 50 52 60 74 133 142 157 195 353 36 28 29 30 37 49 43 36 30 26
238 224 221 215 213 203 197 191 176 127 74 67 64 59 57 52 48 45 44 43 41 41 41 41 45 46 50 52 56 69 75 28 12 2 20 24 28 39 44 34 35 25 24
245 225 221 219 215 208 202 205 218 185 110 83 73 64 58 52 48 44 41 38 36 36 36 36 37 38 40 49 49 48 52 35 21 338 345 24 27 40 31 24 30 16 17
248 229 225 220 216 212 210 215 211 183 154 123 96 82 69 54 46 42 38 35 32 30 31 31 30 30 29 30 35 45 41 21 4 355 340 354 31 27 19 11 13 6 5
244 228 223 220 219 215 213 213 208 196 185 156 121 83 64 54 42 37 33 30 29 27 25 24 23 22 23 22 21 15 12 12 2 360 343 345 353 10 16 3 356 356 356